Weather History for CYQQ - September, 2013

Change the Weather History Date:

Wednesday, September 18, 2013

  Actual Average Record
Temperature  
Mean Temperature 56 °F -  
Max Temperature 64 °F 59 °F 74 °F (2012)
Min Temperature 48 °F 44 °F 46 °F (2004)
Degree Days  
Heating Degree Days 9    
Growing Degree Days 6 (Base 50)    
Moisture  
Dew Point 51 °F    
Average Humidity 77    
Maximum Humidity 94    
Minimum Humidity 60    
Precipitation  
Precipitation 0.00 in 0.13 in - ()
Sea Level Pressure  
Sea Level Pressure 30.01 in    
Wind  
Wind Speed 5 mph ()    
Max Wind Speed 12 mph    
Max Gust Speed -    
Visibility 19.9 miles    
Events      
Averages and records for this station are not official NWS values.
T = Trace of Precipitation, MM = Missing Value Source: Averaged Metar Reports

Daily Weather History Graph

Daily Weather History Graph

Search for Another Location

Airport or City:

Trip Planner

Search our weather history database for the weather conditions in past years. The results will help you decide how hot, cold, wet, or windy it might be!

Date:

Astronomy

Sep. 18, 2013 Rise Set
Actual Time 7:00 AM PDT 7:25 PM PDT
Civil Twilight 6:28 AM PDT 7:57 PM PDT
Nautical Twilight 5:50 AM PDT 8:35 PM PDT
Astronomical Twilight 5:10 AM PDT 9:15 PM PDT
Moon 6:49 PM PDT (9/18) 6:08 AM PDT (9/18)
Length of Visible Light 13h 29m
Length of Day
12h 24m
Waxing Gibbous, 99% of the Moon is Illuminated
Sep 18
Waxing Gibbous
Sep 19
Full
Sep 26
Last Quarter
Oct 4
New
Oct 11
First Quarter

Hourly Weather History & Observations

Time (PDT) Temp. Dew Point Humidity Pressure Visibility Wind Dir Wind Speed Gust Speed Precip Events Conditions
12:00 AM 53.6 °F 50.0 °F 88% 29.92 in 20.0 mi WNW 4.6 mph - N/A   Partly Cloudy
1:00 AM 55.4 °F 48.2 °F 77% 29.94 in 20.0 mi WNW 3.5 mph - N/A   Partly Cloudy
2:00 AM 55.4 °F 48.2 °F 77% 29.95 in 20.0 mi West 5.8 mph - N/A   Partly Cloudy
3:00 AM 53.6 °F 48.2 °F 82% 29.96 in 20.0 mi West 3.5 mph - N/A   Partly Cloudy
4:00 AM 50.0 °F 48.2 °F 94% 29.97 in 20.0 mi WNW 4.6 mph - N/A   Partly Cloudy
5:00 AM 49 °F 46 °F 87% 29.97 in 19 mi NW 3.5 mph - -   Scattered Clouds
5:00 AM 50.0 °F 46.4 °F 87% 29.97 in 20.0 mi NW 4.6 mph - N/A   Partly Cloudy
6:00 AM 50.0 °F 46.4 °F 87% 29.98 in 20.0 mi West 3.5 mph - N/A   Partly Cloudy
7:00 AM 51.8 °F 48.2 °F 88% 30.00 in 20.0 mi NW 2.3 mph - N/A   Partly Cloudy
8:00 AM 50.0 °F 48.2 °F 94% 30.01 in 20.0 mi Calm Calm - N/A   Partly Cloudy
9:00 AM 55.4 °F 50.0 °F 82% 30.01 in 20.0 mi NW 3.5 mph - N/A   Partly Cloudy
10:00 AM 59.0 °F 50.0 °F 72% 30.03 in 20.0 mi North 3.5 mph - N/A   Partly Cloudy
11:00 AM 60 °F 51 °F 63% 30.03 in 19 mi ENE 3.5 mph - -   Scattered Clouds
11:00 AM 60.8 °F 50.0 °F 68% 30.03 in 20.0 mi ENE 3.5 mph - N/A   Partly Cloudy
12:00 PM 60.8 °F 51.8 °F 72% 30.04 in 20.0 mi East 8.1 mph - N/A   Scattered Clouds
1:00 PM 62.6 °F 50.0 °F 63% 30.04 in 20.0 mi East 5.8 mph - N/A   Scattered Clouds
2:00 PM 64.4 °F 55.4 °F 73% 30.04 in 20.0 mi East 8.1 mph - N/A   Mostly Cloudy
3:00 PM 62.6 °F 50.0 °F 63% 30.04 in 20.0 mi ESE 5.8 mph - N/A   Mostly Cloudy
4:00 PM 62.6 °F 51.8 °F 68% 30.04 in 20.0 mi SSE 6.9 mph - N/A   Mostly Cloudy
5:00 PM 63 °F 53 °F 60% 30.03 in 19 mi SSE 5.8 mph - -   Partly Cloudy
5:00 PM 62.6 °F 53.6 °F 72% 30.03 in 20.0 mi SE 6.9 mph - N/A   Mostly Cloudy
6:00 PM 60.8 °F 53.6 °F 77% 30.03 in 20.0 mi SSE 11.5 mph - N/A   Mostly Cloudy
7:00 PM 60.8 °F 53.6 °F 77% 30.03 in 20.0 mi SSE 9.2 mph - N/A   Overcast
8:00 PM 60.8 °F 55.4 °F 82% 30.03 in 20.0 mi SSE 9.2 mph - N/A   Overcast
9:00 PM 60.8 °F 55.4 °F 82% 30.04 in 20.0 mi SSE 6.9 mph - N/A   Overcast
10:00 PM 60.8 °F 53.6 °F 77% 30.03 in 20.0 mi SSE 10.4 mph - N/A   Overcast
11:00 PM 60 °F 53 °F 71% 30.03 in 19 mi SE 9.2 mph - -   Overcast
11:00 PM 60.8 °F 53.6 °F 77% 30.03 in 20.0 mi SE 10.4 mph - N/A   Overcast